RH
53 52 58 59 60 63 66 67 74 84 67 56 57 52 55 56 53 55 57 51 52 56 59 60 60 60 61 61 60 60 59 59 58 58 58 59 60 60
54 56 57 59 59 61 62 66 68 76 89 67 66 61 55 44 50 55 56 50 50 53 54 55 58 60 60 61 62 62 61 60 59 58 58 58 59 59
55 57 58 55 60 62 62 64 67 70 88 66 64 62 61 63 61 61 59 58 65 51 50 52 54 57 59 61 62 63 63 63 62 61 60 59 59 59
60 58 60 45 60 62 63 63 67 68 75 76 65 67 66 65 67 68 51 42 57 50 52 53 53 56 58 61 63 63 64 62 62 62 62 60 57 57
61 62 62 61 61 62 63 66 68 55 69 72 71 74 73 70 69 68 65 68 51 51 52 50 48 49 52 55 58 60 62 62 63 63 64 63 60 59
63 63 63 65 67 65 62 67 60 69 71 75 79 76 76 69 74 71 72 76 67 50 51 50 50 52 50 52 55 59 61 62 64 65 64 63 62 62
62 62 66 64 59 62 61 73 73 74 73 73 74 74 74 74 74 71 73 71 76 74 72 70 64 64 64 60 56 55 55 56 56 58 60 62 63 64
86 79 74 63 65 60 59 64 79 92 86 79 74 76 74 74 80 80 80 81 88 76 77 70 68 66 61 66 57 54 56 56 56 57 59 62 64 64
85 78 72 58 62 65 63 59 60 64 74 94 93 89 90 95 81 75 74 87 92 80 77 71 68 64 66 51 56 56 56 57 57 56 57 58 60 62
79 78 81 79 74 69 72 71 70 69 66 57 68 78 80 73 72 68 74 74 73 74 74 82 73 72 68 72 65 59 55 55 55 57 56 55 60 60
71 71 72 73 67 58 69 87 81 74 58 60 57 57 58 60 63 75 95 95 92 80 76 93 89 80 84 74 63 54 53 53 54 55 56 60 60 61
73 68 64 62 62 60 68 87 92 80 78 75 73 73 69 74 63 74 84 88 88 88 73 81 82 85 94 74 60 61 73 64 62 63 61 58 59 69
74 68 65 61 58 56 56 82 84 79 85 89 96 89 90 85 80 77 80 85 86 86 72 76 95 96 95 85 82 72 70 74 71 65 61 59 60 61
85 72 71 64 61 59 58 63 59 56 89 94 81 74 69 66 70 75 79 82 80 78 72 76 89 89 94 87 85 74 78 76 73 74 72 67 65 63
67 69 68 66 64 63 62 61 61 86 92 94 87 75 70 72 72 80 77 79 82 80 62 68 77 83 91 90 87 84 80 76 83 84 79 77 78 78
65 70 62 62 61 62 61 66 69 70 78 78 76 85 86 80 79 86 88 85 89 83 76 79 81 84 91 90 89 92 86 93 90 86 85 80 76 74
69 81 83 80 76 78 82 84 83 83 82 86 85 78 75 76 76 82 87 88 93 89 88 89 84 85 86 90 95 91 90 89 84 85 84 85 79 78
85 96 95 90 97 95 89 88 91 77 88 86 85 84 84 84 85 86 86 91 90 85 85 84 91 94 89 84 75 89 87 89 86 84 85 92 87 79
83 95 95 96 98 95 94 95 94 90 86 92 90 92 88 86 81 85 86 85 86 82 84 84 90 94 95 92 69 58 84 85 87 89 86 87 89 81
89 93 97 96 97 97 97 97 95 88 80 87 89 90 92 93 92 92 90 90 88 86 86 83 87 86 92 89 85 73 64 77 79 82 83 78 74 68
96 96 96 96 96 97 96 96 95 92 84 90 90 90 90 92 92 89 89 80 81 91 94 90 82 71 83 91 96 88 77 70 77 84 83 86 86 80
96 96 95 95 96 96 96 96 96 93 91 91 91 90 89 92 94 91 90 92 90 86 85 81 79 83 89 93 91 85 81 73 67 66 70 74 84 92
94 94 95 95 93 92 96 94 93 92 92 92 91 91 92 94 88 89 90 89 90 90 88 89 85 84 88 90 88 91 89 86 84 83 79 68 72 74
Wind_Speed
2 1 1 1 1 1 1 2 2 1 2 4 2 2 2 1 2 2 3 9 12 12 12 10 10 9 10 10 9 9 9 10 10 10 11 11 12 11
1 3 2 0 1 0 1 1 1 2 2 2 2 2 3 4 6 5 5 9 10 12 12 11 11 11 12 12 12 11 11 11 11 11 11 11 12 12
1 2 3 1 2 1 2 2 2 2 2 4 2 3 4 4 5 5 5 4 5 12 12 12 12 13 13 14 14 14 14 14 13 13 12 11 12 12
3 2 3 3 3 3 3 3 3 4 3 6 3 2 3 4 5 6 7 6 4 10 14 14 14 14 15 15 16 16 15 15 15 14 13 13 12 12
4 4 4 4 4 3 4 3 3 4 4 4 4 1 2 3 5 6 6 5 5 12 15 14 12 13 14 14 15 16 16 16 16 16 16 16 15 15
5 5 5 5 5 4 4 5 4 3 3 3 3 5 3 5 4 6 6 3 6 6 8 11 15 14 16 17 15 15 15 15 16 17 17 17 17 16
5 5 5 8 12 10 5 5 4 3 3 4 5 5 6 6 6 5 4 5 4 4 4 3 3 4 7 12 13 15 15 15 15 15 15 16 17 17
5 5 5 11 11 15 16 15 11 6 8 7 7 7 9 8 4 5 5 6 5 4 3 4 2 4 6 6 14 19 21 21 19 18 18 19 19 19
6 6 7 8 13 8 13 15 14 16 16 10 11 9 9 6 6 8 8 6 5 5 3 7 4 7 6 8 19 21 21 21 21 20 19 20 21 21
6 7 7 6 7 8 7 8 7 6 7 7 6 6 7 7 8 8 9 8 7 5 6 10 5 7 6 5 17 19 19 22 23 23 24 26 24 23
6 6 6 7 12 17 9 7 7 7 12 19 20 21 22 23 19 8 7 7 8 8 6 6 5 5 4 4 5 18 24 26 25 26 25 23 23 23
6 7 17 12 18 20 10 6 5 9 8 9 9 12 13 8 16 8 5 7 8 9 6 6 4 2 3 4 8 7 5 11 15 18 20 20 23 8
7 7 6 17 18 18 17 6 8 9 11 5 3 5 5 6 6 7 7 7 8 10 8 6 3 2 3 6 4 7 8 7 7 10 19 22 23 20
7 7 8 18 19 19 15 17 18 16 2 4 4 5 6 6 5 5 6 6 5 7 4 5 4 4 4 9 9 8 6 6 8 9 9 16 23 24
8 12 20 21 22 18 18 16 16 2 3 2 4 5 4 4 4 4 5 6 6 6 7 8 8 7 6 10 11 8 11 8 7 8 10 10 10 8
10 8 12 16 19 15 13 8 2 3 3 4 3 2 2 4 6 3 4 6 6 8 8 9 10 10 9 9 9 10 8 9 5 7 8 9 9 9
12 6 6 6 8 7 4 3 3 3 3 3 4 6 6 6 7 4 5 6 7 8 8 5 8 10 9 11 10 9 9 10 9 10 10 11 10 9
10 7 7 8 6 4 4 3 2 6 3 3 4 5 6 6 6 6 6 6 8 9 8 7 5 4 7 9 16 11 10 10 9 10 10 10 11 9
7 5 6 5 3 3 4 4 3 3 4 4 5 5 7 7 11 8 7 8 9 9 8 7 6 6 9 11 8 15 9 8 9 9 10 10 12 11
6 5 2 3 3 3 3 3 3 4 7 6 7 7 7 8 8 8 8 9 9 9 9 9 8 9 9 11 10 11 19 11 11 11 10 11 12 22
2 1 2 2 3 3 4 4 4 5 8 8 7 8 8 8 9 9 9 17 17 9 10 10 9 18 8 7 7 9 10 20 19 13 11 11 12 12
2 2 3 3 3 4 4 4 4 7 7 7 8 8 8 8 9 9 9 9 9 10 11 11 10 8 8 10 12 14 11 12 17 25 27 25 13 16
3 3 3 3 4 5 4 6 7 8 8 8 8 8 8 9 9 9 10 10 10 10 11 11 10 9 11 11 16 12 16 15 12 13 13 25 29 30
Wind_Direction
32 107 108 342 42 45 56 74 121 342 320 355 95 40 38 50 289 282 262 297 302 308 307 305 306 304 301 298 299 300 302 300 303 306 306 308 309 311
94 21 356 340 316 274 240 196 182 170 250 352 358 326 355 343 318 316 260 274 287 295 294 291 293 294 297 297 294 292 292 290 295 297 298 301 305 309
329 209 271 296 299 271 256 235 241 221 230 285 296 310 329 326 312 306 293 286 267 283 289 285 283 284 288 291 291 291 291 289 291 292 296 299 301 301
268 282 267 264 251 255 263 255 244 232 214 266 276 295 306 313 301 307 295 283 269 288 290 284 284 284 285 286 285 285 286 288 289 290 291 293 297 295
245 239 242 252 255 253 256 248 237 247 234 240 274 252 266 283 292 287 277 275 266 280 288 286 289 295 294 288 284 282 284 286 285 285 286 286 288 292
235 231 236 238 237 247 258 255 256 258 255 252 247 272 260 266 252 274 286 276 274 276 288 301 291 295 299 289 286 280 280 281 280 281 282 282 281 283
252 234 222 231 245 234 223 235 243 252 252 254 253 256 269 265 251 258 259 278 274 263 271 276 283 286 285 287 280 278 280 281 280 280 281 281 283 285
255 263 260 269 269 264 264 252 228 222 241 243 250 246 253 257 262 276 270 265 275 252 243 273 249 272 276 269 283 287 286 287 280 278 278 280 282 282
236 243 241 242 249 227 254 268 272 275 252 228 235 242 253 237 258 273 267 261 264 267 265 265 256 268 263 271 282 283 283 283 282 280 278 280 280 280
239 240 241 246 242 248 234 237 241 246 263 274 255 237 236 240 237 244 245 253 259 255 240 262 251 259 264 256 272 281 288 290 289 287 290 286 281 279
250 247 244 239 247 262 256 230 236 242 261 271 273 271 271 270 266 257 257 261 266 270 270 272 256 259 233 255 269 284 284 281 280 278 277 279 275 277
256 249 260 258 249 251 246 219 229 251 252 263 268 274 279 279 278 274 270 266 265 275 247 247 246 213 286 233 264 277 283 303 294 293 292 299 292 274
249 255 254 263 264 267 266 218 227 250 255 250 252 262 256 252 250 247 242 237 257 257 255 261 209 223 208 271 275 280 271 280 289 289 290 289 284 279
233 247 256 265 269 269 272 273 268 271 291 239 234 256 262 262 256 252 254 257 255 265 282 271 266 241 254 277 277 274 262 262 268 269 269 269 274 276
239 244 253 255 258 265 276 282 280 267 222 211 243 257 256 263 271 276 289 286 280 275 277 266 261 255 240 264 274 267 273 266 249 252 257 260 263 259
288 283 275 269 263 254 260 270 227 211 206 225 240 231 261 276 274 251 263 271 271 278 263 249 253 254 256 251 254 262 251 251 250 251 252 258 261 259
260 248 246 252 254 263 241 224 222 222 225 223 238 257 262 264 264 253 253 266 265 273 272 258 254 247 246 251 258 252 254 252 252 255 256 262 262 258
265 252 233 235 232 213 203 220 217 256 221 229 237 242 255 260 265 262 254 254 267 272 274 270 262 271 270 258 249 262 256 252 253 254 253 257 266 260
277 267 255 218 185 206 207 204 220 228 235 239 255 253 259 263 277 274 264 263 266 269 270 268 259 251 272 272 273 264 262 257 254 251 249 251 260 260
272 263 202 199 206 207 216 220 232 251 264 259 259 259 254 255 260 259 259 259 262 266 270 264 254 252 249 262 270 269 266 263 260 260 261 264 264 270
263 253 239 222 221 218 227 230 228 246 259 255 253 254 254 251 256 258 261 267 267 262 263 261 255 261 260 269 265 268 263 257 250 252 261 264 268 272
239 238 251 241 232 226 231 230 237 253 258 255 256 255 255 252 254 257 254 259 259 261 263 269 273 267 259 258 265 269 270 271 268 264 261 258 258 264
263 255 247 242 246 248 238 246 252 257 255 254 257 257 252 251 250 253 256 256 260 261 260 266 266 260 257 258 262 265 262 264 267 272 265 261 259 259